Location: Lake Zurich
(42.1970°N, 88.0930°W)
Time: 07:57:34
(UTC-05:00)

Daily predictions for brighter satellites

Satellite Brightness Start Highest point End
(mag) Time Altitude Azimuth Time Altitude Azimuth Time Altitude Azimuth
USA 234 3.9 20:44:41 10° ESE 20:50:59 51° NNE 20:57:18 10° NW
H-2A R/B 2.1 20:49:49 10° SSE 20:54:00 65° ENE 20:58:19 10° N
Abrixas rocket 2.4 20:56:46 10° WNW 21:00:11 74° NNE 21:03:37 10° ESE
ATLAS CENTAUR R/B 2.7 20:57:38 10° SW 21:02:31 56° NW 21:07:30 10° NNE
Cosmos 1626 Rocket 4.4 20:59:03 10° SSE 21:03:01 32° E 21:06:57 10° NNE
SL-24 R/B - RUBIN 2 4.4 20:58:36 10° SW 21:03:59 81° WNW 21:10:11 10° NNE
Cosmos 2237 Rocket 3.5 21:00:35 10° SW 21:05:56 45° WNW 21:11:22 10° NNE
SJ-11-01 4.3 21:03:48 10° SSE 21:08:27 84° WSW 21:13:10 10° NNW
Atlas Centaur 2 4.0 21:05:11 10° SSW 21:11:13 25° SSE 21:17:44 10° ESE
Cosmos 2278 Rocket 3.7 21:07:46 10° NW 21:12:52 35° WSW 21:17:56 10° SSW
Meteor 1-15 Rocket 4.2 21:10:24 10° N 21:16:00 77° E 21:21:39 10° SSE
Cosmos 2228 3.0 21:12:27 10° N 21:16:53 74° E 21:21:17 10° SSE
Cosmos 1891 Rocket 4.5 21:12:07 10° N 21:18:17 69° E 21:24:18 10° SSE
Cosmos 494 Rocket 4.0 21:14:48 10° SSW 21:19:55 83° WNW 21:25:04 10° NNE
PSLV R/B 4.4 21:16:59 10° SSW 21:19:59 26° SSE 21:22:27 13° ESE
USA 186 4.4 21:19:30 10° SW 21:21:18 15° W 21:23:02 10° WNW
Aureole 2 Rocket 2.6 21:17:28 10° SSW 21:21:27 71° ESE 21:25:05 10° NNE
H-2A R/B 3.9 21:19:54 10° E 21:22:36 15° ENE 21:25:21 10° NNE
COSMOS 2455 3.6 21:17:29 10° S 21:22:40 31° ESE 21:27:53 10° NE
Cosmos 1939 Rocket 3.0 21:19:01 10° S 21:23:10 83° WSW 21:27:21 10° NNW
Cosmos 1892 Rocket 4.5 21:19:23 10° SSW 21:23:42 51° W 21:28:05 10° N
Cosmos 2369 Rocket 3.7 21:22:34 10° N 21:27:10 25° NE 21:31:20 12° ESE
SPOT 1/Viking Rocket 4.1 21:26:44 15° SE 21:30:41 44° ENE 21:35:34 10° N
Cosmos 1666 2.9 21:27:06 10° N 21:31:00 77° W 21:34:49 10° S
SPOT 5 2.6 21:26:56 12° SSE 21:31:02 80° ENE 21:35:23 10° N
Nimbus 7 Rocket 4.4 21:25:10 10° NNE 21:31:11 89° ESE 21:37:06 10° SSW
SL-16 R/B 2.9 21:27:20 10° SW 21:32:54 60° WNW 21:38:31 10° NNE
ARGOS 3.9 21:29:23 15° SE 21:33:18 38° ENE 21:38:17 10° N
Lacrosse 5 rocket 3.1 21:32:59 10° WSW 21:36:35 35° NW 21:40:22 10° NNE
CZ-4 SHROUD 3.4 21:34:31 15° S 21:37:05 70° WSW 21:40:15 10° NNW
Tsikada Rocket 4.0 21:35:36 10° S 21:41:59 76° E 21:48:22 10° N
DEBRIS 2.9 21:39:22 10° WNW 21:44:11 47° SW 21:45:17 27° SSE
MetOp-B 4.2 21:49:01 16° SSE 21:53:21 85° WSW 21:58:44 10° NNW
Lacrosse 4 Rocket 3.4 21:55:02 13° E 21:55:02 13° E 21:56:02 10° ENE
SeaSat 1 2.9 21:50:09 16° S 21:54:02 56° WSW 21:58:54 10° NW
SL-08 RB Rocket 4.1 21:55:15 25° SE 21:57:38 49° ENE 22:02:01 10° N
CZ-4B R/B 3.4 21:53:11 10° NNE 21:58:16 82° ESE 22:03:27 10° SSW
Terra 3.1 21:56:20 19° ESE 21:58:29 27° ENE 22:02:28 10° N
UNK 4.3 21:55:05 10° NNE 22:00:29 81° WNW 22:06:08 10° SSW
Cosmos 1515 3.7 21:58:52 26° SSE 22:00:50 61° E 22:04:39 10° NNE
Cosmos 1603 3.7 21:56:02 10° SSW 22:01:39 87° WNW 22:07:18 10° NNE
Cosmos 1346 Rocket 3.7 22:03:05 28° ESE 22:03:40 29° E 22:07:05 10° NNE
Cosmos 1238 4.2 22:05:02 25° SSW 22:06:45 78° W 22:09:47 10° N
Cosmos 1461 3.5 22:05:04 10° NW 22:09:13 49° WSW 22:11:08 27° S
Cosmos 1825 Rocket 3.6 22:10:25 29° SSE 22:12:30 61° E 22:16:54 10° NNE
Cosmos 1812 Rocket 4.2 22:12:51 10° NNW 22:17:06 52° W 22:19:55 20° SSW
ATLAS 3B R/B 3.1 22:16:52 12° S 22:23:47 50° ESE 22:31:00 10° NE
Cosmos 1634 Rocket 3.9 22:18:14 10° N 22:24:26 83° E 22:27:55 28° S
YAOGAN 6 3.7 22:24:55 24° SSW 22:26:39 40° W 22:30:13 10° NNW
Cosmos 1943 3.2 22:23:34 22° S 22:27:13 64° ESE 22:32:52 10° NNE
Cosmos 407 Rocket 3.8 22:27:24 35° SSE 22:29:04 47° ESE 22:34:04 10° NNE
USA 234 3.6 22:30:35 28° SSE 22:33:57 54° SW 22:40:23 10° NW
USA 81 4.2 22:30:20 10° N 22:35:36 71° W 22:38:24 28° S
Abrixas rocket 4.3 22:34:31 10° W 22:36:37 19° SW 22:36:37 19° SW
Cosmos 1943 Rocket 3.2 22:34:57 10° N 22:40:00 35° ENE 22:42:15 25° E
Cosmos 1766 3.4 22:37:48 10° N 22:41:46 59° E 22:42:13 54° ESE
Cosmos 489 Rocket 4.4 22:42:47 30° S 22:46:05 69° ESE 22:52:26 10° NNE
Cosmos 2279 Rocket 3.9 22:43:55 10° N 22:50:12 77° E 22:52:43 39° SSE
CZ-4C R/B 4.2 22:51:16 35° SSW 22:52:34 47° W 22:56:35 10° NNW
USA 238 DEB 4.4 22:55:18 33° SE 22:56:01 34° ESE 23:02:14 10° NE
USA 238 4.4 22:55:26 33° SE 22:56:07 34° ESE 23:02:18 10° NE
SAR-Lupe-2 3.7 22:56:08 61° WSW 22:56:18 62° WSW 22:59:52 10° NNW
Cosmos 1953 Rocket 4.0 22:55:35 35° SW 22:57:14 59° W 23:01:38 10° N
Atlas Centaur 2 3.5 22:52:46 10° WSW 23:00:05 36° S 23:00:56 35° SSE
ISS -0.7 23:03:16 13° NE 23:03:16 13° NE 23:03:41 10° NE
H-2A R/B 2.0 22:59:58 46° S 23:01:23 72° WSW 23:06:26 10° NNW
Cosmos 2180 Rocket 4.4 22:59:37 10° N 23:05:55 85° E 23:08:09 43° SSE
COSMOS 2455 3.9 23:02:40 10° SW 23:08:24 45° NW 23:14:11 10° NNE
Cosmos 2369 Rocket 2.6 23:06:00 10° NNW 23:11:32 54° WSW 23:13:08 41° SSW
IGS 5A 3.7 23:13:13 53° SW 23:13:37 56° W 23:17:43 10° NNW
Cosmos 1953 2.3 23:09:45 10° N 23:13:33 69° ENE 23:13:33 69° ENE
Spot 4 3.9 23:14:25 54° SSW 23:15:18 67° WSW 23:20:05 10° NNW
Cosmos 1805 3.5 23:14:01 10° N 23:17:37 60° NE 23:17:37 60° NE
DMSP B5D2-2 4.3 23:13:24 10° N 23:18:40 68° WNW 23:20:42 37° SW
Cosmos-2242 3.0 23:17:17 10° N 23:21:42 76° W 23:21:58 73° SW
Lacrosse 4 Rocket 2.1 23:31:19 42° W 23:32:06 49° WNW 23:36:06 10° NNE
COSMOS 2406 3.2 23:32:43 56° SE 23:33:07 57° ESE 23:38:43 10° NNE
Terra 2.9 23:35:13 31° WSW 23:36:06 33° W 23:40:25 10° NNW
Cosmos 676 Rocket 4.5 23:35:11 35° SW 23:37:15 58° WNW 23:42:31 10° NNE
Cosmos 1340 4.2 23:41:39 28° NE 23:41:39 28° NE 23:43:53 10° NNE
ALOS 2 3.7 23:41:59 33° ENE 23:42:02 33° ENE 23:45:58 10° N
Cosmos 1023 Rocket 4.3 23:44:26 73° S 23:44:58 85° ESE 23:50:16 10° NNE
Cosmos 1140 Rocket 3.4 23:49:34 72° SSW 23:50:08 87° WNW 23:55:25 10° NNE
